Regional Weather Roundup
Issued by NWS

Home | Current Version | Previous Version | Text Only | Print | Product List | Glossary On
Versions: 1 2 3 4 5 6 7 8 9 10 11 12 13 14 15 16 17 18 19 20 21 22 23 24 25 26 27 28 29 30 31 32 33 34 35 36 37 38 39 40 41 42 43 44 45 46 47 48 49 50
000
ASUS43 KTOP 241408
RWRKS

WEATHER ROUNDUP FOR KANSAS
NATIONAL WEATHER SERVICE GOODLAND KS
900 AM CDT FRI APR 24 2015

NOTE:  "FAIR" INDICATES FEW OR NO CLOUDS BELOW 12,000 FEET WITH NO
SIGNIFICANT WEATHER AND/OR OBSTRUCTIONS TO VISIBILITY.

KSZ001>006-013>018-027>032-041>047-241500-
NORTHWEST KANSAS

CITY           SKY/WX    TMP DP  RH WIND       PRES   REMARKS
GOODLAND       SUNNY     56  52  86 S6        29.69F
HAYS           CLOUDY    55  50  82 SE13      29.70S VSB 3/4
HILL CITY      CLOUDY    56  55  97 S6        29.71S FOG
RUSSELL        CLOUDY    57  56  96 S16       29.69S FOG
$$

KSZ061>065-074>080-084>089-241500-
SOUTHWEST KANSAS

CITY           SKY/WX    TMP DP  RH WIND       PRES   REMARKS
DODGE CITY     CLOUDY    62  57  83 S24       29.67S
ELKHART          N/A     54  37  52 NW10        N/A
GARDEN CITY    CLOUDY    58  55  90 S14       29.66S
GREAT BEND     CLOUDY    57  54  88 S17       29.69F
LIBERAL        PTSUNNY   55  48  76 S9        29.70F
$$

KSZ066>073-081>083-090>101-241500-
SOUTHEAST KANSAS

CITY           SKY/WX    TMP DP  RH WIND       PRES   REMARKS
CHANUTE        CLOUDY    56  49  77 S15       29.83F
COFFEYVILLE    CLOUDY    56  49  77 S13       29.83F
HUTCHINSON     CLOUDY    58  55  90 SE16      29.74F FOG
MEDICINE LODGE   N/A     59  59 100 SE8       29.73F
NEWTON         CLOUDY    55  50  82 SE15      29.77F
PARSONS        CLOUDY    56  50  80 S9        29.84F
WICHITA INTL   DRIZZLE   58  56  93 SE12      29.76F FOG
WICHITA JABRA  CLOUDY    56  55  97 SE13      29.77F FOG
WICHITA MCCONL CLOUDY    57  56  96 E9        29.77F FOG
WINFIELD       CLOUDY    58  56  93 S17       29.79S
$$

KSZ007>012-019>026-033>040-048>060-102>105-241500-
NORTHEAST KANSAS

CITY           SKY/WX    TMP DP  RH WIND       PRES   REMARKS
CONCORDIA      CLOUDY    57  52  83 SE10      29.72F
EMPORIA        CLOUDY    56  49  77 SE20G26   29.77F
LAWRENCE       CLOUDY    55  45  68 SE21      29.81F
MANHATTAN      CLOUDY    59  52  77 S17       29.75S
MARYSVILLE     CLOUDY    55  50  82 S8        29.75F
OLATHE IND     LGT RAIN  54  42  64 SE13      29.86F
OLATHE EXE     CLOUDY    56  42  59 S13G21    29.85S
SALINA         CLOUDY    59  54  83 S16       29.73F
TOPEKA BILLARD CLOUDY    56  46  69 S17G28    29.80S
TOPEKA FORBES  CLOUDY    56  47  71 S21G28    29.77F
$$



USA.gov is the U.S. government's official web portal to all federal, state and local government web resources and services.